星链-36521(STARLINK-36521)

导读

STARLINK-36521是美国太空探索技术公司SpaceX星链星座中的一颗卫星,于2026年1月18日成功发射。星链项目旨在构建全球卫星互联网星座,为全球偏远地区、海洋等网络覆盖薄弱区域提供高速宽带接入服务,该卫星加入星座后将进一步扩展星链网络的覆盖范围与服务能力。

基本信息
目录编号:
67507
目录名称:
STARLINK-36521
国际标识:
2026-012Q
轨道中心:
EARTH
卫星名称:
星链-36521
卫星全名:
星链-36521(STARLINK-36521)
卫星状态:
在轨 (已飞行229 天)
发射日期:
2026-01-18 UTC
国别 :
美国 (US)
星等 :
--
轨道信息
数据来源 国际轨道数据
星历时间: 2026-09-03T18:58:36+0800
20小时前
查看轨道信息
半长轴: 6861.15km
偏心率: 0.000194
轨道倾角: 43.005°
近地点辐角 263.353°
升交点赤经 30.064°
平近点角 96.710°
近地点: 481.681km
远地点: 484.345km
周期: 94.266分钟
每日圈数: 15.275922
详细信息
固有亮度:
5
最大亮度:
2.5
卫星平台:
Starlink V1.0
覆盖范围:
全球
运营商:
太空探索技术公司
运营商所在国:
美国
制造商(研发单位):
太空探索技术公司
制造商所在国:
美国
使用方式:
暂无
卫星简介
Starlink 计划是 SpaceX 推出的全球卫星互联网项目,通过发射低轨道卫星,为全球尤其是偏远地区提供高速、低延迟的互联网服务。自 2019 年起,Starlink 已部署数千颗卫星,旨在缩小全球数字鸿沟,推动互联网普及。该项目还为军事、航空等行业提供通信支持,带来广泛经济效益。
2D轨道图
3D轨道图
轨道高度分析图
轨道倾角分析图
轨道综合分析图
查看轨道综合分析图
交会数据列表
事件ID 空间交会对象 最接近时刻(TCA) 交会距离 交会风险概率(CRP) 交会风险指数(CRI) 操作
CDM_260905-010905-947406-750721
2026-09-05T
01:09:12+0000
0.390 km
远距离
2.155244E-4 高风险 0.82
CDM_260905-012604-102606-750722
2026-09-05T
01:26:28+0000
0.961 km
远距离
1.83291E-5 中风险 0.6
CDM_260905-121705-709106-750721
2026-09-05T
12:17:42+0000
2.395 km
极远距离
1.490952E-6 低风险 0.38
CDM_260905-080503-787506-750721
2026-09-05T
08:05:34+0000
2.812 km
极远距离
1.266777E-6 低风险 0.37
CDM_260905-024305-947406-750721
2026-09-05T
02:43:22+0000
2.294 km
极远距离
1.237301E-6 低风险 0.37
CDM_260904-233505-947406-750721
2026-09-04T
23:35:03+0000
2.352 km
极远距离
1.179455E-6 低风险 0.36
CDM_260905-094705-947406-750721
2026-09-05T
09:47:03+0000
2.367 km
极远距离
1.164498E-6 低风险 0.36